Simultaneous Nadir Overpasses (SNOs) Predictions

Prediction of SNOs between METOP-B and TERRA Satellite Orbit:

Table of predicted SNOs for the next 14.0 days since TLE Epoch: 7/27/2019
Index Date (METOP-B) Time (METOP-B) Lat,Lon (METOP-B) SZA (METOP-B ) Date (TERRA) Time (TERRA) Lat,Lon (TERRA) SZA (TERRA ) Distance(km) Time Diff (sec)
1 07/28/2019 19:51:31 -81.31, 109.58 114.86 07/28/2019 19:51:48 -81.32, 109.48 114.86 1.80 17
2 07/28/2019 20:42:11 81.32, -82.66 65.21 07/28/2019 20:41:14 81.32, -82.80 65.17 2.44 57
3 07/31/2019 15:25:54 -81.31, 175.70 114.22 07/31/2019 15:26:03 -81.32, 175.88 114.19 2.96 9
4 07/31/2019 16:16:34 81.31, -16.55 65.85 07/31/2019 16:15:29 81.32, -16.43 65.83 2.20 65
5 08/03/2019 10:10:06 80.97, 63.23 65.06 08/03/2019 10:11:15 80.71, 66.03 65.16 57.21 69
6 08/03/2019 11:00:16 -81.31,-117.79 113.49 08/03/2019 11:00:18 -81.31,-117.77 113.49 0.30 2
7 08/03/2019 11:50:56 81.32, 49.93 66.57 08/03/2019 11:49:44 81.31, 49.91 66.53 0.49 72
8 08/06/2019 05:43:58 81.30, 140.73 67.19 08/06/2019 05:45:05 81.30, 140.89 67.24 2.74 67
9 08/06/2019 06:34:37 -81.31, -51.29 112.72 08/06/2019 06:34:32 -81.30, -51.46 112.75 2.98 5
10 08/09/2019 01:18:19 81.31,-152.41 68.04 08/09/2019 01:19:19 81.31,-152.47 68.07 1.21 60




NCC Satellite Simultaneous Nadir Overpasses (SNOs) Prediction Service
